Lusaka, Zambia

10:38 PM CAT on October 21, 2017 (GMT +0200)
Lusaka

Weather History for FLLS - November, 2012

Change the Weather History Date:

Thursday, November 8, 2012

  Actual Average Record
Temperature  
Mean Temperature 78 °F -  
Max Temperature 95 °F 83 °F 96 °F (2013)
Min Temperature 62 °F 66 °F 48 °F (2007)
Cooling Degree Days 14    
Growing Degree Days 28 (Base 50)    
Moisture  
Dew Point 44 °F    
Average Humidity 29    
Maximum Humidity 59    
Minimum Humidity 15    
Precipitation  
Precipitation 0.00 in 0.16 in - ()
Sea Level Pressure  
Sea Level Pressure 29.99 in    
Wind  
Wind Speed 4 mph ()    
Max Wind Speed 14 mph    
Max Gust Speed -    
Visibility 10.0 miles    
Events      
Averages and records for this station are not official NWS values.
T = Trace of Precipitation, MM = Missing Value Source: Averaged Metar Reports

Daily Weather History Graph

Daily Weather History Graph

Search for Another Location

Airport or City:

Trip Planner

Search our weather history database for the weather conditions in past years. The results will help you decide how hot, cold, wet, or windy it might be!

Date:

Astronomy

Nov. 08, 2012 Rise Set
Actual Time 5:27 AM CAT 6:12 PM CAT
Civil Twilight 5:04 AM CAT 6:35 PM CAT
Nautical Twilight 4:38 AM CAT 7:01 PM CAT
Astronomical Twilight 4:11 AM CAT 7:28 PM CAT
Moon 12:54 AM CAT (11/8) 1:01 PM CAT (11/8)
Length of Visible Light 13h 30m
Length of Day
12h 45m
Waning Crescent, 36% of the Moon is Illuminated
Nov 8
Waning Crescent
Nov 14
New
Nov 20
First Quarter
Nov 28
Full
Dec 6
Last Quarter

Hourly Weather History & Observations

Time (CAT) Temp. Dew Point Humidity Pressure Visibility Wind Dir Wind Speed Gust Speed Precip Events Conditions
12:00 AM 66.2 °F 35.6 °F 32% 30.04 in - Calm Calm - N/A   Clear
1:00 AM 66.2 °F 35.6 °F 32% 30.01 in - Calm Calm - N/A   Clear
2:00 AM 64 °F 28 °F 15%  in 19 mi 3.5 mph - -  
2:00 AM 64.4 °F 26.6 °F 24% 30.01 in - Variable 3.5 mph - N/A   Clear
3:00 AM 64.4 °F 32.0 °F 30% 30.01 in - Calm Calm - N/A   Clear
4:00 AM 64.4 °F 37.4 °F 37% 30.01 in - Variable 4.6 mph - N/A   Clear
5:00 AM 62.6 °F 48.2 °F 59% 30.01 in - Calm Calm - N/A   Clear
7:00 AM 77.0 °F 44.6 °F 32% 30.06 in - Calm Calm - N/A   Clear
8:00 AM 82 °F 46 °F 18%  in 19 mi NNE 10.4 mph - -   Scattered Clouds
8:00 AM 82.4 °F 46.4 °F 28% 30.06 in - NNE 10.4 mph - N/A   Clear
9:00 AM 86.0 °F 51.8 °F 31% 30.06 in - ENE 10.4 mph - N/A   Clear
10:00 AM 89.6 °F 50.0 °F 26% 30.06 in - North 13.8 mph - N/A   Clear
11:00 AM 89.6 °F 50.0 °F 26% 30.04 in 6.2 mi NE 13.8 mph - N/A   Partly Cloudy
12:00 PM 93.2 °F 48.2 °F 21% 30.01 in 6.2 mi NE 9.2 mph - N/A   Partly Cloudy
1:00 PM 93.2 °F 42.8 °F 17% 29.98 in 6.2 mi ENE 12.7 mph - N/A   Scattered Clouds
2:00 PM 95.0 °F 44.6 °F 18% 29.95 in 6.2 mi NNW 4.6 mph - N/A   Mostly Cloudy
3:00 PM 95.0 °F 48.2 °F 20% 29.95 in 6.2 mi NE 8.1 mph - N/A   Scattered Clouds
4:00 PM 91.4 °F 46.4 °F 21% 29.92 in 6.2 mi ESE 8.1 mph - N/A   Partly Cloudy
5:00 PM 93.2 °F 44.6 °F 19% 29.92 in 6.2 mi NE 11.5 mph - N/A   Partly Cloudy
6:00 PM 87.8 °F 46.4 °F 24% 29.92 in - East 2.3 mph - N/A   Clear
7:00 PM 82.4 °F 48.2 °F 30% 29.92 in - South 3.5 mph - N/A   Clear
8:00 PM 77 °F 50 °F 27%  in 19 mi SE 3.5 mph - -   Clear
9:00 PM 73.4 °F 48.2 °F 41% 29.98 in - ESE 3.5 mph - N/A   Clear
10:00 PM 73.4 °F 50.0 °F 44% 29.98 in - SSE 5.8 mph - N/A   Clear
11:00 PM 75.2 °F 51.8 °F 44% 29.98 in - ESE 5.8 mph - N/A   Clear